| time (UTC) | temp F | wind direction | speed MPH | gust MPH | rain 1hr in | rain 24hr in | rain mn in | humidity % | barometer mb |
| 20260507050003 | 44 | 343 | 1.0 | 5.0 | 0.00 | 0.00 | 0.00 | 86 | 1013.8 |
| 20260507045403 | 44 | 318 | 1.0 | 4.0 | 0.00 | 0.00 | 0.00 | 86 | 1013.7 |
| 20260507044503 | 44 | 316 | 1.0 | 4.0 | 0.00 | 0.00 | 0.00 | 87 | 1013.8 |
| 20260507043603 | 43 | 309 | 1.0 | 3.0 | 0.00 | 0.00 | 0.00 | 87 | 1013.7 |
| 20260507042917 | 43 | 318 | 1.0 | 4.0 | 0.00 | 0.00 | 0.00 | 86 | 1013.8 |
| 20260507041803 | 42 | 346 | 1.0 | 3.0 | 0.00 | 0.00 | 0.00 | 87 | 1013.7 |
| 20260507040903 | 42 | 359 | 1.0 | 3.0 | 0.00 | 0.00 | 0.00 | 88 | 1013.6 |
| 20260507040217 | 41 | 2 | 1.0 | 2.0 | 0.00 | 0.00 | 0.00 | 88 | 1013.7 |
| 20260507035617 | 41 | 2 | 0.0 | 3.0 | 0.00 | 0.00 | 0.00 | 87 | 1013.6 |
| 20260507034503 | 41 | 2 | 0.0 | 2.0 | 0.00 | 0.00 | 0.00 | 88 | 1013.5 |
| 20260507033603 | 41 | 2 | 0.0 | 2.0 | 0.00 | 0.00 | 0.00 | 87 | 1013.6 |
| 20260507032703 | 41 | 2 | 0.0 | 1.0 | 0.00 | 0.00 | 0.00 | 87 | 1013.5 |
| 20260507031803 | 41 | 2 | 0.0 | 1.0 | 0.00 | 0.00 | 0.00 | 87 | 1013.4 |
| 20260507030903 | 41 | 2 | 0.0 | 2.0 | 0.00 | 0.00 | 0.00 | 87 | 1013.3 |
| 20260507030217 | 41 | 2 | 0.0 | 2.0 | 0.00 | 0.00 | 0.00 | 87 | 1013.2 |
| 20260507025403 | 42 | 0 | 0.0 | 0.0 | 0.00 | 0.00 | 0.00 | 86 | 1013.3 |
| 20260507024503 | 42 | 0 | 0.0 | 0.0 | 0.00 | 0.00 | 0.00 | 85 | 1013.2 |
| 20260507023603 | 42 | 2 | 0.0 | 1.0 | 0.00 | 0.00 | 0.00 | 85 | 1013.2 |
| 20260507022703 | 43 | 2 | 0.0 | 2.0 | 0.00 | 0.00 | 0.00 | 85 | 1013.1 |
| 20260507021803 | 43 | 2 | 1.0 | 4.0 | 0.00 | 0.00 | 0.00 | 85 | 1012.9 |
| 20260507020903 | 43 | 2 | 1.0 | 3.0 | 0.00 | 0.00 | 0.00 | 84 | 1012.9 |
| 20260507020003 | 43 | 2 | 1.0 | 4.0 | 0.00 | 0.00 | 0.00 | 84 | 1012.9 |
| 20260507015403 | 43 | 2 | 1.0 | 4.0 | 0.00 | 0.00 | 0.00 | 85 | 1012.7 |
| 20260507014503 | 43 | 2 | 1.0 | 3.0 | 0.00 | 0.00 | 0.00 | 84 | 1012.7 |
| 20260507013603 | 43 | 2 | 1.0 | 3.0 | 0.00 | 0.00 | 0.00 | 85 | 1012.8 |
| 20260507012703 | 43 | 2 | 1.0 | 3.0 | 0.00 | 0.00 | 0.00 | 85 | 1012.7 |
| 20260507011803 | 43 | 2 | 0.0 | 3.0 | 0.00 | 0.00 | 0.00 | 85 | 1012.8 |
| 20260507010003 | 44 | 3 | 0.0 | 3.0 | 0.00 | 0.00 | 0.00 | 85 | 1012.8 |
| 20260507005403 | 44 | 5 | 0.0 | 3.0 | 0.00 | 0.00 | 0.00 | 85 | 1012.7 |
| 20260507004503 | 44 | 6 | 1.0 | 3.0 | 0.00 | 0.00 | 0.00 | 85 | 1012.7 |
| 20260507003603 | 44 | 6 | 0.0 | 2.0 | 0.00 | 0.00 | 0.00 | 85 | 1012.7 |
| 20260507002703 | 44 | 4 | 0.0 | 4.0 | 0.00 | 0.00 | 0.00 | 84 | 1012.8 |
| 20260507001803 | 44 | 2 | 0.0 | 3.0 | 0.00 | 0.00 | 0.00 | 84 | 1012.8 |
| 20260507000903 | 45 | 3 | 1.0 | 3.0 | 0.00 | 0.00 | 0.00 | 84 | 1012.7 |
| 20260507000003 | 45 | 7 | 1.0 | 4.0 | 0.00 | 0.00 | 0.00 | 84 | 1012.8 |
| 20260506235403 | 45 | 8 | 1.0 | 4.0 | 0.00 | 0.00 | 0.00 | 83 | 1012.9 |
| 20260506234503 | 45 | 10 | 0.0 | 3.0 | 0.00 | 0.00 | 0.00 | 83 | 1012.8 |
| 20260506233818 | 45 | 11 | 1.0 | 4.0 | 0.00 | 0.00 | 0.00 | 83 | 1012.8 |
| 20260506232703 | 45 | 8 | 1.0 | 4.0 | 0.00 | 0.00 | 0.00 | 82 | 1012.9 |
| 20260506232016 | 45 | 10 | 1.0 | 3.0 | 0.00 | 0.00 | 0.00 | 82 | 1012.9 |
| 20260506230903 | 45 | 19 | 1.0 | 5.0 | 0.00 | 0.00 | 0.00 | 82 | 1012.8 |
| 20260506230003 | 45 | 13 | 1.0 | 5.0 | 0.00 | 0.00 | 0.00 | 81 | 1012.7 |
| 20260506225617 | 45 | 9 | 1.0 | 5.0 | 0.00 | 0.00 | 0.00 | 81 | 1012.7 |
| 20260506224503 | 45 | 5 | 1.0 | 5.0 | 0.00 | 0.00 | 0.00 | 81 | 1012.6 |
| 20260506223817 | 45 | 8 | 1.0 | 4.0 | 0.00 | 0.00 | 0.00 | 81 | 1012.5 |
| 20260506222703 | 46 | 4 | 2.0 | 5.0 | 0.00 | 0.00 | 0.00 | 81 | 1012.6 |
| 20260506221803 | 46 | 14 | 1.0 | 5.0 | 0.00 | 0.00 | 0.00 | 80 | 1012.6 |
| 20260506221117 | 46 | 18 | 1.0 | 4.0 | 0.00 | 0.00 | 0.00 | 80 | 1012.6 |
| 20260506220005 | 46 | 16 | 1.0 | 3.0 | 0.00 | 0.00 | 0.00 | 81 | 1012.7 |
| 20260506215403 | 46 | 15 | 0.0 | 2.0 | 0.00 | 0.00 | 0.00 | 81 | 1012.6 |
| 20260506214503 | 46 | 14 | 1.0 | 4.0 | 0.00 | 0.00 | 0.00 | 81 | 1012.6 |
| 20260506213817 | 46 | 15 | 1.0 | 5.0 | 0.00 | 0.00 | 0.00 | 80 | 1012.6 |
| 20260506212703 | 46 | 18 | 1.0 | 4.0 | 0.00 | 0.00 | 0.00 | 81 | 1012.6 |
| 20260506211803 | 46 | 22 | 1.0 | 4.0 | 0.00 | 0.00 | 0.00 | 80 | 1012.5 |
| 20260506210903 | 46 | 23 | 1.0 | 4.0 | 0.00 | 0.00 | 0.00 | 80 | 1012.5 |
| 20260506210003 | 47 | 21 | 1.0 | 6.0 | 0.00 | 0.00 | 0.00 | 80 | 1012.3 |
| 20260506205403 | 47 | 22 | 1.0 | 4.0 | 0.00 | 0.00 | 0.00 | 80 | 1012.3 |
| 20260506204503 | 47 | 19 | 2.0 | 7.0 | 0.00 | 0.00 | 0.00 | 79 | 1012.4 |
| 20260506203603 | 47 | 12 | 1.0 | 6.0 | 0.00 | 0.00 | 0.00 | 79 | 1012.3 |
| 20260506202703 | 47 | 18 | 2.0 | 5.0 | 0.00 | 0.00 | 0.00 | 79 | 1012.3 |
| 20260506201803 | 47 | 12 | 3.0 | 10.0 | 0.00 | 0.00 | 0.00 | 79 | 1012.1 |
| 20260506200903 | 48 | 14 | 2.0 | 9.0 | 0.00 | 0.00 | 0.00 | 79 | 1012.0 |
| 20260506200003 | 48 | 21 | 3.0 | 8.0 | 0.00 | 0.00 | 0.00 | 79 | 1011.8 |
| 20260506195403 | 48 | 24 | 3.0 | 6.0 | 0.00 | 0.00 | 0.00 | 79 | 1011.9 |
| 20260506194503 | 48 | 20 | 2.0 | 7.0 | 0.00 | 0.00 | 0.00 | 79 | 1011.8 |
| 20260506193603 | 49 | 12 | 2.0 | 8.0 | 0.00 | 0.00 | 0.00 | 78 | 1011.8 |
| 20260506192918 | 49 | 15 | 3.0 | 8.0 | 0.00 | 0.00 | 0.00 | 77 | 1011.8 |
| 20260506192017 | 49 | 15 | 3.0 | 9.0 | 0.00 | 0.00 | 0.00 | 76 | 1011.7 |
| 20260506190903 | 50 | 27 | 2.0 | 8.0 | 0.00 | 0.00 | 0.00 | 76 | 1011.6 |
| 20260506190003 | 50 | 19 | 3.0 | 8.0 | 0.00 | 0.00 | 0.00 | 75 | 1011.5 |
| 20260506185403 | 50 | 20 | 4.0 | 8.0 | 0.00 | 0.00 | 0.00 | 75 | 1011.5 |
| 20260506184503 | 51 | 28 | 4.0 | 9.0 | 0.00 | 0.00 | 0.00 | 74 | 1011.3 |
| 20260506183603 | 51 | 18 | 3.0 | 8.0 | 0.00 | 0.00 | 0.00 | 74 | 1011.3 |
| 20260506182703 | 51 | 20 | 5.0 | 13.0 | 0.00 | 0.00 | 0.00 | 73 | 1011.3 |
| 20260506181803 | 52 | 21 | 5.0 | 12.0 | 0.00 | 0.00 | 0.00 | 72 | 1011.1 |
| 20260506180903 | 52 | 20 | 4.0 | 12.0 | 0.00 | 0.00 | 0.00 | 70 | 1011.0 |
| 20260506180004 | 53 | 29 | 6.0 | 14.0 | 0.00 | 0.00 | 0.00 | 69 | 1010.9 |
| 20260506175403 | 53 | 23 | 5.0 | 14.0 | 0.00 | 0.00 | 0.00 | 66 | 1010.8 |
| 20260506174503 | 54 | 26 | 4.0 | 14.0 | 0.00 | 0.00 | 0.00 | 64 | 1010.8 |
| 20260506173603 | 54 | 24 | 6.0 | 17.0 | 0.00 | 0.00 | 0.00 | 61 | 1010.7 |
| 20260506172703 | 54 | 27 | 6.0 | 15.0 | 0.00 | 0.00 | 0.00 | 64 | 1010.6 |
| 20260506172016 | 54 | 25 | 6.0 | 15.0 | 0.00 | 0.00 | 0.00 | 61 | 1010.5 |
| 20260506170903 | 55 | 26 | 5.0 | 13.0 | 0.00 | 0.00 | 0.00 | 60 | 1010.4 |
| 20260506170003 | 56 | 23 | 6.0 | 14.0 | 0.00 | 0.00 | 0.00 | 58 | 1010.3 |
| 20260506165403 | 57 | 16 | 6.0 | 14.0 | 0.00 | 0.00 | 0.00 | 56 | 1010.4 |
| 20260506164718 | 58 | 24 | 6.0 | 15.0 | 0.00 | 0.00 | 0.00 | 54 | 1010.3 |
| 20260506163603 | 57 | 26 | 7.0 | 17.0 | 0.00 | 0.00 | 0.00 | 55 | 1010.3 |
| 20260506162703 | 56 | 26 | 6.0 | 17.0 | 0.00 | 0.00 | 0.00 | 55 | 1010.4 |
| 20260506161803 | 56 | 20 | 5.0 | 13.0 | 0.00 | 0.00 | 0.00 | 57 | 1010.4 |
| 20260506161117 | 56 | 30 | 6.0 | 15.0 | 0.00 | 0.00 | 0.00 | 56 | 1010.4 |
| 20260506160003 | 57 | 25 | 6.0 | 14.0 | 0.00 | 0.00 | 0.00 | 56 | 1010.3 |
| 20260506155403 | 57 | 35 | 6.0 | 18.0 | 0.00 | 0.00 | 0.00 | 56 | 1010.3 |
| 20260506154503 | 56 | 23 | 8.0 | 16.0 | 0.00 | 0.00 | 0.00 | 61 | 1010.4 |
| 20260506153603 | 56 | 17 | 6.0 | 14.0 | 0.00 | 0.00 | 0.00 | 62 | 1010.4 |
| 20260506152703 | 55 | 23 | 6.0 | 19.0 | 0.00 | 0.00 | 0.00 | 62 | 1010.3 |
| 20260506151803 | 56 | 28 | 5.0 | 15.0 | 0.00 | 0.00 | 0.00 | 62 | 1010.3 |
| 20260506150903 | 56 | 33 | 6.0 | 16.0 | 0.00 | 0.00 | 0.00 | 59 | 1010.2 |
| 20260506150003 | 57 | 33 | 6.0 | 18.0 | 0.00 | 0.00 | 0.00 | 58 | 1010.1 |
| 20260506145403 | 57 | 23 | 7.0 | 19.0 | 0.00 | 0.00 | 0.00 | 57 | 1009.9 |
| 20260506144503 | 58 | 17 | 7.0 | 19.0 | 0.00 | 0.00 | 0.00 | 57 | 1010.1 |
| 20260506143603 | 58 | 28 | 6.0 | 18.0 | 0.00 | 0.00 | 0.00 | 57 | 1009.9 |
| 20260506142918 | 58 | 26 | 7.0 | 18.0 | 0.00 | 0.00 | 0.00 | 60 | 1009.9 |
| 20260506141803 | 58 | 28 | 7.0 | 16.0 | 0.00 | 0.00 | 0.00 | 61 | 1009.8 |
| 20260506140903 | 58 | 29 | 7.0 | 20.0 | 0.00 | 0.00 | 0.00 | 61 | 1009.8 |
| 20260506140003 | 58 | 35 | 8.0 | 20.0 | 0.00 | 0.00 | 0.00 | 60 | 1010.0 |
| 20260506135403 | 57 | 32 | 8.0 | 19.0 | 0.00 | 0.00 | 0.00 | 59 | 1009.8 |
| 20260506134503 | 57 | 23 | 9.0 | 20.0 | 0.00 | 0.00 | 0.00 | 64 | 1009.8 |
| 20260506133603 | 57 | 25 | 9.0 | 20.0 | 0.00 | 0.00 | 0.00 | 64 | 1009.9 |
| 20260506132703 | 57 | 24 | 9.0 | 17.0 | 0.00 | 0.00 | 0.00 | 65 | 1009.7 |
| 20260506131803 | 58 | 22 | 7.0 | 16.0 | 0.00 | 0.00 | 0.00 | 65 | 1009.8 |
| 20260506130903 | 58 | 16 | 7.0 | 17.0 | 0.00 | 0.00 | 0.00 | 65 | 1009.7 |
| 20260506130003 | 58 | 25 | 7.0 | 16.0 | 0.00 | 0.00 | 0.00 | 64 | 1009.7 |
| 20260506125403 | 58 | 23 | 7.0 | 16.0 | 0.00 | 0.00 | 0.00 | 62 | 1009.7 |
| 20260506124503 | 58 | 32 | 8.0 | 18.0 | 0.00 | 0.00 | 0.00 | 63 | 1009.6 |
| 20260506123603 | 58 | 25 | 8.0 | 16.0 | 0.00 | 0.00 | 0.00 | 60 | 1009.5 |
| 20260506122703 | 58 | 29 | 7.0 | 17.0 | 0.00 | 0.00 | 0.00 | 61 | 1009.5 |
| 20260506121803 | 58 | 29 | 7.0 | 17.0 | 0.00 | 0.00 | 0.00 | 60 | 1009.6 |
| 20260506120903 | 58 | 29 | 7.0 | 17.0 | 0.00 | 0.00 | 0.00 | 61 | 1009.4 |
| 20260506120003 | 58 | 28 | 6.0 | 16.0 | 0.00 | 0.00 | 0.00 | 65 | 1009.5 |
| 20260506115403 | 57 | 23 | 8.0 | 17.0 | 0.00 | 0.00 | 0.00 | 63 | 1009.5 |
| 20260506114503 | 58 | 22 | 7.0 | 16.0 | 0.00 | 0.00 | 0.00 | 61 | 1009.3 |
| 20260506113817 | 58 | 25 | 7.0 | 18.0 | 0.00 | 0.00 | 0.00 | 60 | 1009.4 |
| 20260506112917 | 58 | 27 | 6.0 | 18.0 | 0.00 | 0.00 | 0.00 | 60 | 1009.6 |
| 20260506111803 | 58 | 22 | 5.0 | 17.0 | 0.00 | 0.00 | 0.00 | 59 | 1009.6 |
| 20260506110903 | 59 | 35 | 6.0 | 19.0 | 0.00 | 0.00 | 0.00 | 59 | 1009.5 |
| 20260506110003 | 59 | 59 | 5.0 | 18.0 | 0.00 | 0.00 | 0.00 | 58 | 1009.4 |
| 20260506105403 | 60 | 67 | 6.0 | 18.0 | 0.00 | 0.00 | 0.00 | 56 | 1009.4 |
| 20260506104503 | 59 | 59 | 7.0 | 17.0 | 0.00 | 0.00 | 0.00 | 57 | 1009.6 |
| 20260506103603 | 59 | 42 | 6.0 | 16.0 | 0.00 | 0.00 | 0.00 | 61 | 1009.7 |
| 20260506102703 | 59 | 50 | 6.0 | 19.0 | 0.00 | 0.00 | 0.00 | 57 | 1009.5 |
| 20260506101803 | 58 | 48 | 7.0 | 20.0 | 0.00 | 0.00 | 0.00 | 58 | 1009.4 |
| 20260506100903 | 58 | 49 | 7.0 | 17.0 | 0.00 | 0.00 | 0.00 | 63 | 1009.4 |
| 20260506100003 | 57 | 35 | 7.0 | 19.0 | 0.00 | 0.00 | 0.00 | 64 | 1009.3 |
| 20260506095403 | 56 | 28 | 6.0 | 16.0 | 0.00 | 0.00 | 0.00 | 65 | 1009.3 |
| 20260506094503 | 56 | 38 | 6.0 | 15.0 | 0.00 | 0.00 | 0.00 | 67 | 1009.2 |
| 20260506093603 | 56 | 37 | 7.0 | 17.0 | 0.00 | 0.00 | 0.00 | 67 | 1009.3 |
| 20260506092703 | 55 | 39 | 7.0 | 20.0 | 0.00 | 0.00 | 0.00 | 66 | 1009.1 |
| 20260506091803 | 56 | 38 | 7.0 | 17.0 | 0.00 | 0.00 | 0.00 | 66 | 1009.1 |
| 20260506090903 | 57 | 53 | 6.0 | 15.0 | 0.00 | 0.00 | 0.00 | 65 | 1009.1 |
| 20260506090003 | 56 | 33 | 6.0 | 14.0 | 0.00 | 0.00 | 0.00 | 64 | 1009.1 |
| 20260506085403 | 56 | 30 | 6.0 | 15.0 | 0.00 | 0.00 | 0.00 | 68 | 1009.1 |
| 20260506084503 | 56 | 41 | 5.0 | 15.0 | 0.00 | 0.00 | 0.00 | 68 | 1009.2 |
| 20260506083603 | 55 | 32 | 7.0 | 15.0 | 0.00 | 0.00 | 0.00 | 71 | 1009.0 |
| 20260506082703 | 55 | 36 | 7.0 | 18.0 | 0.00 | 0.00 | 0.00 | 73 | 1009.0 |
| 20260506081803 | 54 | 41 | 5.0 | 15.0 | 0.00 | 0.00 | 0.00 | 72 | 1009.1 |
| 20260506080903 | 54 | 31 | 5.0 | 15.0 | 0.00 | 0.00 | 0.00 | 72 | 1009.0 |
| 20260506072703 | 54 | 37 | 5.0 | 15.0 | 0.00 | 0.00 | 0.00 | 75 | 1008.7 |
| 20260506071803 | 54 | 29 | 7.0 | 17.0 | 0.00 | 0.00 | 0.00 | 78 | 1008.7 |
| 20260506070903 | 54 | 31 | 5.0 | 17.0 | 0.00 | 0.00 | 0.00 | 77 | 1008.6 |
| 20260506061803 | 51 | 35 | 4.0 | 11.0 | 0.00 | 0.00 | 0.00 | 84 | 1008.6 |
| 20260506060903 | 50 | 32 | 4.0 | 11.0 | 0.00 | 0.00 | 0.00 | 85 | 1008.5 |
| 20260506060217 | 50 | 26 | 4.0 | 11.0 | 0.00 | 0.00 | 0.00 | 86 | 1008.5 |
| 20260506050903 | 48 | 30 | 2.0 | 6.0 | 0.00 | 0.00 | 0.00 | 90 | 1008.6 |